Temperature
18 18 18 18 18 17 17 17 17 17 17 17 17 17 17 17 17 17 17 17 17 16 16 16 16 16 16 16 16 16 16 16 16 16 16 16 16 16 15 15 15 15 15
19 18 18 18 18 17 17 17 17 17 17 17 17 17 17 16 16 16 17 16 16 16 16 16 16 16 16 16 16 16 16 16 16 15 15 15 15 15 15 15 15 15 15
18 18 18 18 17 17 17 17 17 17 17 17 17 17 16 16 16 16 16 16 16 16 16 16 16 16 16 16 16 16 16 16 15 15 15 15 15 15 15 15 15 15 15
18 18 18 17 17 17 17 17 17 17 17 17 16 16 16 16 16 16 16 16 16 16 16 16 16 16 16 16 16 16 15 15 15 15 15 15 15 15 15 15 14 14 14
17 17 17 17 17 17 17 17 17 17 17 16 16 16 16 16 16 16 16 16 16 16 16 16 16 16 16 16 16 15 15 15 15 14 14 14 14 14 14 14 14 14 14
17 17 17 17 17 17 17 17 17 16 16 16 16 16 16 16 16 16 16 16 16 16 16 16 16 16 16 16 15 15 15 14 14 14 14 14 14 14 14 14 14 14 14
16 16 16 16 16 16 16 16 16 16 16 16 16 16 16 16 16 16 16 16 15 15 15 15 15 15 15 15 15 15 15 14 14 14 14 14 14 14 14 14 14 14 14
16 16 16 16 16 16 16 16 16 16 16 16 16 16 16 16 16 16 16 15 15 15 15 15 15 15 15 15 15 15 14 14 14 14 14 14 14 14 14 14 14 14 14
16 16 16 16 16 16 16 16 16 16 16 16 16 16 16 15 15 15 15 15 15 15 15 15 15 15 15 15 15 15 14 14 14 14 14 14 14 14 13 14 14 14 13
16 16 16 16 16 16 16 16 16 16 15 15 15 15 15 15 15 15 15 15 15 15 15 15 15 15 15 15 14 14 14 14 13 13 13 13 13 13 13 13 13 13 13
15 15 15 15 15 15 15 15 15 15 15 15 15 15 15 15 15 15 15 15 15 15 15 14 14 14 14 14 14 14 13 13 13 13 13 13 13 13 13 13 13 13 13
15 15 15 15 15 15 15 15 15 15 15 15 15 14 14 14 14 15 14 14 14 14 14 14 14 14 14 14 13 13 13 13 13 13 13 13 13 13 13 13 13 13 12
15 15 14 15 15 15 15 15 15 14 14 14 14 14 14 14 14 14 14 14 14 14 14 14 14 13 13 13 13 13 13 12 12 12 12 12 12 12 12 12 12 12 12
14 14 14 14 15 15 15 14 14 14 14 14 14 14 14 14 14 14 14 14 13 13 13 13 13 13 13 13 13 12 12 12 12 12 12 12 12 12 12 12 12 12 12
14 14 14 14 14 14 14 14 14 14 14 14 14 14 14 14 14 14 13 13 13 13 13 13 13 12 12 12 12 12 12 12 12 12 12 12 12 12 11 11 11 11 11
14 14 14 14 14 14 14 14 14 14 14 14 14 14 14 14 14 13 13 13 13 13 13 12 12 12 12 12 12 12 12 12 12 11 11 11 11 11 11 11 11 11 11
14 14 14 14 14 14 14 14 14 14 14 14 14 14 14 13 13 13 13 13 13 13 12 12 12 12 12 12 12 12 11 11 11 11 11 11 11 11 11 11 11 11 10
13 13 13 13 13 13 13 13 13 13 14 13 13 13 13 13 13 13 13 13 12 12 12 12 12 12 12 11 11 11 11 11 11 11 11 11 11 11 11 10 10 10 10
13 13 13 13 13 13 13 13 13 13 13 13 13 13 13 13 13 13 12 12 12 12 12 12 12 11 11 11 11 11 11 11 11 10 10 10 10 10 10 10 10 10 10
13 13 13 12 12 13 13 13 12 13 13 13 13 13 13 13 12 12 12 12 12 11 11 11 11 11 11 11 11 11 11 11 10 10 10 10 10 9 9 9 9 9 9
12 12 12 12 12 12 12 12 12 12 12 12 12 12 12 12 12 12 12 11 11 11 11 11 11 10 10 10 10 10 10 10 10 10 9 9 9 9 9 9 9 9 9
12 12 12 12 12 12 12 12 12 12 12 12 12 12 12 12 11 11 11 11 11 11 10 10 10 10 10 10 9 9 9 9 9 9 9 9 9 9 9 8 8 8 8
11 11 12 11 11 11 11 11 11 11 11 11 11 11 11 11 11 11 11 11 10 10 10 10 10 10 9 9 9 8 8 8 8 9 9 9 8 8 8 8 8 8 7
11 11 11 11 11 11 11 11 11 11 11 11 11 11 11 11 11 11 10 10 10 10 10 9 9 9 9 9 8 8 8 8 7 7 8 8 8 8 8 7 7 7 7
10 10 10 10 10 10 10 10 11 11 11 11 11 11 10 10 10 10 10 10 10 9 9 9 9 8 8 8 8 8 8 7 7 6 6 7 7 7 7 7 7 7 6
10 10 10 10 10 10 10 10 10 10 10 10 10 10 10 10 10 10 10 9 9 9 9 9 8 8 8 8 7 7 7 7 7 6 6 6 6 7 7 6 6 6 6
Wind_Speed
11 14 17 17 17 16 16 16 16 16 16 16 16 16 16 16 15 15 15 15 14 14 14 15 15 15 15 15 15 14 14 14 13 14 14 14 14 14 14 14 13 13 14
15 17 18 18 17 16 16 16 16 16 16 16 16 16 15 15 15 15 15 15 14 14 14 14 14 15 14 14 14 13 13 12 11 11 12 12 13 13 14 14 13 12 13
16 18 17 18 18 17 16 16 16 16 16 16 15 15 15 14 14 15 15 15 14 14 14 14 14 14 13 13 12 11 10 9 8 8 9 9 11 12 12 13 12 12 12
16 17 17 18 18 18 17 17 16 16 15 15 15 15 15 14 14 14 14 14 14 14 14 14 13 13 12 11 10 10 8 7 7 6 7 9 10 11 11 11 11 11 11
15 16 18 18 18 18 17 17 16 16 16 15 15 15 14 14 14 14 14 14 14 14 14 13 13 12 11 10 9 8 7 6 7 8 10 11 11 10 10 10 10 10 10
14 17 18 18 18 18 17 17 16 16 16 15 15 14 14 14 14 14 13 13 13 13 12 12 11 11 10 9 8 7 6 7 7 8 10 10 10 9 9 9 9 9 9
14 17 18 18 17 17 17 17 16 16 15 15 15 14 13 13 13 13 13 12 12 11 11 10 10 9 9 8 7 6 6 7 6 8 9 10 9 9 9 8 8 8 8
13 16 17 18 18 17 17 17 16 15 15 15 14 14 13 13 12 12 12 11 11 10 10 10 9 8 8 7 6 6 6 7 6 7 8 9 8 8 7 7 7 7 7
13 14 14 16 16 17 17 17 16 15 15 15 14 14 13 12 12 11 11 10 10 10 9 9 8 7 7 6 5 5 6 6 7 6 7 7 7 7 6 6 6 7 7
10 11 12 14 15 15 15 16 16 16 15 14 14 14 13 12 11 11 10 10 9 9 8 8 7 6 5 4 3 3 5 5 5 5 7 7 6 6 6 6 6 7 7
9 8 9 10 12 14 14 15 15 15 15 14 13 13 12 10 10 10 10 9 9 8 7 6 5 4 3 2 1 2 3 3 3 5 7 5 5 5 5 6 6 6 7
9 8 7 9 10 11 12 12 12 11 12 11 10 10 8 8 9 10 10 8 8 7 6 4 4 3 2 1 1 1 1 1 2 5 5 5 5 5 5 5 6 6 7
9 8 7 8 9 9 8 9 8 8 8 9 9 8 8 9 9 9 7 6 5 5 3 3 2 1 1 1 1 0 1 2 4 5 5 4 4 4 5 5 6 6 7
9 8 8 8 8 8 8 7 7 6 5 6 7 8 7 5 5 5 4 4 4 3 2 1 1 1 2 2 1 1 2 2 4 5 4 4 3 3 5 6 6 7 7
8 8 7 7 7 7 6 5 6 5 5 7 7 7 7 5 4 4 4 4 3 3 2 1 1 1 2 2 2 2 2 2 3 4 3 2 2 3 4 5 7 8 8
8 8 7 7 7 7 6 5 5 6 7 8 7 7 7 6 5 4 3 3 3 2 2 2 2 2 2 2 2 3 2 3 2 2 2 1 1 2 4 5 7 8 9
9 8 7 7 7 7 6 5 6 7 8 6 6 7 7 7 5 4 3 3 2 2 2 3 3 3 2 2 2 2 2 2 1 1 1 0 1 2 4 6 7 8 9
9 8 7 7 7 7 6 6 6 7 7 6 7 7 7 6 6 5 3 2 3 3 2 1 2 2 2 2 2 2 2 2 2 2 2 2 1 2 4 6 7 8 9
9 9 8 7 7 7 6 6 6 7 7 7 7 6 6 6 5 4 3 2 3 3 2 2 2 2 2 2 2 2 2 1 1 1 2 2 2 2 3 5 7 8 9
8 9 8 7 7 6 5 4 5 5 5 6 7 6 6 6 5 4 3 3 3 2 2 1 1 1 1 1 3 3 3 2 1 1 1 2 2 3 4 4 5 6 7
8 8 8 8 7 6 4 4 4 4 4 4 5 7 7 5 5 4 3 2 3 2 1 1 1 2 2 2 2 3 3 2 1 1 1 1 2 3 4 5 5 5 5
7 8 8 8 7 6 5 4 4 4 3 3 4 5 6 5 5 4 3 2 2 1 1 1 1 1 1 2 1 1 2 3 3 2 2 1 2 3 3 5 5 5 6
7 7 7 7 7 6 6 4 4 4 3 3 3 3 4 5 5 4 3 2 2 1 1 1 1 1 0 1 1 1 0 2 3 3 2 2 2 2 3 4 4 5 7
5 5 6 7 7 6 6 6 7 5 4 4 4 3 3 5 5 4 3 3 2 1 1 0 1 1 1 1 1 1 1 1 1 3 3 2 3 3 3 3 4 6 7
4 5 5 6 6 5 5 6 6 5 4 4 4 5 4 3 4 4 3 2 2 1 1 1 1 1 0 1 1 1 1 2 2 2 4 4 4 3 3 3 3 5 7
3 4 5 5 5 5 5 5 5 5 5 6 5 5 4 3 3 3 3 2 2 2 1 1 1 1 1 1 1 1 1 1 2 2 3 5 5 4 4 3 3 4 7
Wind_Direction
123 128 132 127 124 121 119 119 117 114 111 110 108 105 102 100 98 96 94 91 90 89 88 87 85 84 82 79 77 75 75 74 74 75 74 72 70 67 63 60 60 61 62
127 130 132 129 127 124 122 119 118 116 113 111 109 106 104 102 101 98 95 92 90 89 88 86 85 84 82 80 77 75 76 77 78 80 79 74 72 69 65 62 60 63 61
126 131 132 129 128 126 124 122 121 118 115 113 110 108 106 104 103 100 96 93 90 89 87 85 83 83 81 79 76 74 73 74 74 78 78 78 76 73 69 64 62 61 59
126 131 133 130 128 127 126 125 123 121 118 114 111 108 107 105 103 99 96 93 90 88 85 83 83 81 78 76 75 72 67 55 50 51 67 76 76 74 70 64 61 58 56
122 127 130 131 129 128 128 126 124 122 119 115 113 111 108 106 104 99 96 92 89 87 85 83 81 80 77 75 72 65 52 38 34 47 64 70 70 72 68 62 59 57 54
123 123 129 131 130 129 128 126 123 121 119 116 114 112 109 106 105 102 99 96 93 91 89 86 84 82 78 73 68 58 38 28 37 55 63 66 67 70 66 61 57 52 48
124 123 130 130 129 129 129 126 124 122 120 118 116 114 111 109 108 104 102 99 98 96 93 91 87 83 78 72 65 50 29 27 46 60 64 65 62 67 62 55 50 45 39
122 124 130 129 128 126 126 127 125 124 122 120 117 115 113 111 110 107 105 103 101 99 96 94 90 85 79 71 61 42 22 17 44 60 67 66 63 63 57 50 42 35 30
123 128 131 133 130 126 126 126 125 125 122 120 119 117 115 113 112 109 106 104 104 102 98 96 92 85 78 71 59 35 15 19 35 47 67 68 67 61 50 43 35 29 23
121 130 136 138 136 130 126 125 124 123 123 122 121 119 118 115 113 111 106 104 104 104 102 99 96 91 84 75 54 20 3 17 44 56 65 66 65 56 44 34 25 17 11
123 126 132 134 132 131 130 128 124 122 123 123 125 128 126 123 119 112 112 109 107 107 108 107 108 109 108 99 29 345 2 25 57 70 66 67 63 49 36 22 12 5 358
134 132 129 127 126 128 130 130 131 130 131 129 133 137 132 120 116 113 116 118 118 117 116 122 128 133 147 158 266 311 359 29 56 79 72 67 56 37 21 8 359 351 346
138 133 127 125 127 127 125 131 129 129 133 135 133 127 114 111 112 116 121 125 129 130 127 136 161 189 165 124 97 71 344 47 62 71 70 62 43 19 4 353 347 339 334
132 128 127 127 126 124 123 123 124 123 124 117 119 120 117 113 110 116 120 129 130 121 118 139 160 61 57 59 53 37 22 52 78 83 83 65 39 4 350 344 340 338 333
136 132 128 123 126 123 117 120 119 120 119 117 118 113 106 104 99 103 99 99 96 89 75 54 51 52 39 31 18 31 29 47 76 84 85 64 34 3 347 341 338 339 338
143 139 134 128 123 120 119 115 116 117 116 113 112 112 111 106 103 99 95 90 81 71 60 38 29 45 34 33 14 11 18 28 42 90 98 72 16 351 340 336 335 333 335
143 140 138 136 128 123 120 119 117 119 116 115 113 116 111 108 106 102 98 88 79 61 49 34 27 33 18 19 359 350 1 359 356 21 35 33 12 348 329 327 327 327 329
140 140 141 139 131 126 123 121 115 116 115 114 116 113 110 110 106 100 93 93 89 73 59 44 26 24 11 5 351 342 354 0 357 357 359 340 326 327 325 318 321 323 324
142 140 138 136 135 130 124 121 118 115 114 116 114 111 112 113 111 106 103 95 88 74 54 37 33 34 15 358 333 323 325 317 299 328 332 341 337 317 311 307 312 315 319
140 139 140 137 133 128 121 114 113 112 112 112 111 115 116 115 115 107 101 91 85 72 48 39 41 25 24 344 328 321 300 273 278 288 286 312 314 308 307 303 306 307 318
137 139 141 139 136 130 131 135 133 133 129 117 111 118 120 119 114 106 93 87 83 89 78 49 44 27 16 6 3 325 307 279 255 279 287 311 310 312 318 318 314 312 317
147 147 144 145 145 143 146 147 139 132 128 123 119 120 124 120 116 111 102 94 87 97 72 54 59 38 12 31 38 346 328 331 319 291 287 285 295 314 313 314 314 319 319
155 158 155 152 151 148 144 134 123 105 104 113 126 129 127 128 120 115 113 104 91 104 134 118 104 101 39 327 42 97 22 287 314 303 291 288 305 317 307 308 310 316 319
155 150 149 151 149 147 146 147 148 148 149 157 149 141 135 132 127 123 116 109 99 95 105 107 98 106 117 295 322 340 239 225 296 308 307 303 315 312 313 320 318 319 316
142 146 145 145 146 145 148 150 152 148 145 140 141 141 143 131 128 127 125 114 106 92 91 47 49 71 156 213 257 296 295 304 250 243 289 304 313 302 310 312 311 313 318
118 135 144 148 150 148 150 153 155 151 149 145 146 149 150 143 138 132 132 126 118 102 100 77 19 283 250 244 245 245 246 258 268 264 277 298 302 299 305 303 303 307 313
Height
1512 1514 1516 1519 1521 1523 1525 1528 1529 1531 1533 1534 1536 1537 1538 1539 1541 1542 1542 1543 1544 1545 1545 1546 1546 1547 1547 1548 1548 1549 1549 1549 1549 1549 1549 1549 1549 1549 1549 1549 1549 1548 1548
1510 1513 1516 1519 1522 1524 1526 1529 1531 1532 1534 1536 1537 1538 1540 1541 1542 1543 1544 1545 1546 1546 1547 1548 1548 1549 1549 1549 1550 1550 1550 1550 1550 1551 1551 1551 1551 1550 1550 1550 1550 1549 1549
1510 1513 1517 1520 1522 1525 1527 1530 1532 1534 1535 1537 1538 1540 1541 1542 1544 1544 1545 1546 1547 1548 1548 1549 1549 1550 1550 1551 1551 1551 1552 1552 1552 1552 1552 1552 1552 1552 1551 1551 1551 1551 1550
1511 1514 1517 1520 1523 1525 1528 1530 1533 1535 1536 1538 1540 1541 1543 1544 1545 1546 1547 1547 1548 1549 1549 1550 1551 1551 1551 1552 1552 1552 1553 1553 1553 1553 1553 1553 1553 1553 1552 1552 1552 1551 1551
1512 1515 1517 1521 1523 1526 1529 1531 1533 1535 1537 1539 1541 1542 1544 1545 1546 1547 1548 1548 1549 1550 1550 1551 1551 1552 1552 1553 1553 1553 1554 1554 1554 1554 1554 1554 1553 1553 1553 1553 1552 1552 1552
1513 1515 1518 1521 1524 1527 1529 1532 1534 1536 1538 1540 1542 1543 1544 1546 1547 1548 1548 1549 1550 1551 1551 1552 1552 1552 1553 1553 1553 1554 1554 1554 1554 1555 1554 1554 1554 1554 1553 1553 1553 1552 1552
1513 1516 1519 1522 1525 1527 1530 1532 1535 1537 1539 1541 1542 1544 1545 1546 1547 1548 1549 1550 1551 1551 1552 1552 1552 1553 1553 1553 1554 1554 1554 1555 1555 1555 1555 1554 1554 1554 1553 1553 1553 1552 1552
1514 1516 1519 1522 1525 1528 1530 1533 1535 1537 1539 1541 1543 1544 1545 1547 1548 1549 1549 1550 1551 1551 1552 1552 1553 1553 1553 1554 1554 1554 1555 1555 1555 1555 1555 1554 1554 1554 1553 1553 1552 1552 1551
1514 1516 1519 1522 1525 1528 1531 1533 1535 1538 1540 1541 1543 1545 1546 1547 1548 1549 1550 1550 1551 1552 1552 1552 1553 1553 1553 1554 1554 1554 1554 1554 1554 1554 1554 1554 1554 1553 1553 1552 1552 1551 1550
1515 1517 1520 1522 1525 1528 1531 1533 1536 1538 1540 1542 1543 1545 1546 1547 1548 1549 1550 1551 1551 1552 1552 1552 1553 1553 1553 1554 1554 1554 1554 1554 1554 1554 1554 1554 1553 1553 1552 1552 1551 1551 1550
1515 1517 1520 1522 1525 1528 1530 1533 1535 1538 1540 1542 1543 1545 1546 1547 1548 1549 1550 1551 1551 1552 1552 1552 1553 1553 1553 1554 1554 1554 1554 1554 1554 1554 1554 1553 1553 1552 1552 1551 1550 1550 1549
1514 1517 1520 1522 1524 1527 1530 1532 1535 1537 1540 1542 1543 1545 1546 1547 1548 1549 1550 1551 1551 1552 1552 1552 1553 1553 1553 1553 1554 1554 1554 1554 1554 1554 1553 1553 1552 1552 1551 1550 1550 1549 1548
1513 1516 1519 1521 1524 1526 1529 1532 1534 1537 1539 1541 1543 1544 1546 1547 1548 1549 1550 1550 1551 1551 1552 1552 1552 1553 1553 1553 1553 1553 1553 1553 1553 1553 1553 1552 1552 1551 1550 1549 1548 1547 1546
1513 1515 1518 1521 1523 1526 1529 1531 1534 1536 1538 1540 1542 1544 1545 1546 1547 1548 1549 1550 1551 1551 1551 1552 1552 1552 1553 1553 1553 1553 1553 1552 1552 1552 1551 1551 1550 1550 1549 1548 1547 1546 1545
1511 1514 1517 1520 1522 1525 1528 1530 1533 1535 1537 1539 1541 1543 1544 1545 1546 1547 1548 1549 1550 1550 1551 1551 1551 1552 1552 1552 1552 1552 1552 1552 1551 1551 1550 1549 1549 1548 1547 1546 1545 1544 1543
1510 1513 1516 1519 1521 1524 1527 1529 1532 1534 1536 1538 1540 1542 1543 1544 1545 1546 1547 1548 1549 1549 1550 1550 1550 1551 1551 1551 1551 1551 1551 1551 1550 1549 1549 1548 1547 1546 1545 1544 1543 1542 1541
1509 1511 1514 1517 1520 1523 1526 1528 1531 1533 1535 1537 1539 1540 1542 1543 1544 1545 1546 1547 1548 1548 1549 1549 1549 1549 1550 1550 1550 1550 1549 1549 1549 1548 1547 1546 1545 1544 1543 1542 1541 1540 1538
1507 1510 1513 1516 1518 1521 1524 1527 1529 1531 1534 1536 1538 1539 1540 1542 1543 1544 1544 1545 1546 1547 1547 1548 1548 1548 1548 1548 1548 1548 1548 1547 1547 1546 1545 1544 1543 1542 1541 1540 1539 1537 1536
1505 1508 1511 1514 1516 1520 1522 1525 1527 1530 1532 1534 1536 1537 1539 1540 1541 1542 1543 1543 1544 1545 1546 1546 1546 1546 1546 1546 1546 1546 1546 1545 1545 1544 1543 1542 1541 1540 1539 1537 1536 1535 1533
1504 1506 1509 1512 1515 1518 1520 1523 1526 1528 1530 1532 1534 1536 1537 1538 1539 1540 1541 1542 1543 1543 1544 1544 1544 1544 1544 1544 1544 1543 1543 1543 1542 1542 1541 1540 1539 1538 1536 1535 1533 1532 1531
1502 1504 1507 1510 1512 1515 1518 1520 1523 1526 1528 1530 1532 1534 1535 1536 1537 1538 1539 1540 1541 1542 1542 1542 1543 1543 1542 1542 1541 1541 1540 1540 1540 1539 1539 1538 1537 1535 1534 1532 1531 1529 1528
1499 1502 1505 1508 1510 1513 1516 1518 1521 1524 1526 1528 1530 1531 1533 1534 1535 1536 1537 1538 1539 1539 1540 1540 1541 1541 1541 1540 1540 1539 1538 1538 1537 1537 1536 1535 1534 1533 1532 1530 1528 1526 1525
1497 1500 1502 1505 1508 1511 1513 1516 1519 1521 1524 1526 1527 1529 1531 1532 1533 1534 1535 1536 1537 1537 1538 1538 1539 1539 1539 1539 1539 1539 1538 1536 1535 1534 1533 1533 1532 1530 1529 1527 1525 1523 1521
1494 1497 1500 1503 1505 1508 1511 1513 1515 1518 1520 1523 1525 1527 1528 1530 1531 1532 1533 1534 1535 1535 1536 1536 1537 1537 1537 1536 1537 1536 1537 1536 1534 1531 1530 1530 1529 1527 1525 1523 1522 1520 1518
1492 1494 1497 1500 1503 1506 1508 1511 1513 1516 1518 1520 1522 1524 1526 1527 1529 1530 1531 1532 1532 1533 1534 1534 1534 1534 1534 1534 1534 1534 1534 1533 1532 1531 1527 1525 1524 1523 1522 1520 1518 1517 1515
1489 1492 1494 1497 1500 1503 1506 1509 1511 1513 1515 1517 1519 1521 1523 1525 1526 1527 1529 1529 1530 1531 1531 1531 1532 1532 1532 1532 1532 1532 1531 1530 1529 1528 1525 1522 1520 1519 1518 1516 1515 1513 1511